TEVEL2-6

Last updated on Tue Aug 25 2026 00:03:14 GMT+0000 (Coordinated Universal Time)

1 63215U 25052F 26236.18375104 .00018277 00000+0 51349-3 0 9998 2 63215 97.3803 132.6748 0001638 159.1120 201.0192 15.36580109 80547
UTC large
Height (km)
Speed (km/s)
/
Latitude / Longitude
Inclination (degrees)
Orbital Period (minutes)
Azimuth
Elevation
Range (km)
Doppler Factor

Next 0 passes for location: London (51.5072 / 0.1276)

No passes found over London.
TEVEL2-6